When you browse on this site, cookies collect data to enhance your experience and personalize the content and advertising you see.
Visit our Privacy Policy to learn more. By continuing to use the site, you agree to this use of cookies and data.
  • en France
  • Liste des pays
  • À 7 jours
  • Température de l'eau
  • Carte météo
  • Widgets météo
  • user-avatar
    Se connecter

    Météo par heure à Nyala

    Ce jour, 14 Octobre, Lundi

    Heure Température Précipitation Vent Pression Humidité
    00:00 +26°C° 0 mm 3 m/s 697 mmHg 64%
    01:00 +26°C° 0 mm 3 m/s 697 mmHg 66%
    02:00 +26°C° 0 mm 4 m/s 696 mmHg 68%
    03:00 +26°C° 0 mm 4 m/s 696 mmHg 71%
    04:00 +25°C° 0 mm 3 m/s 696 mmHg 73%
    05:00 +25°C° 0 mm 3 m/s 697 mmHg 75%
    06:00 +25°C° 0 mm 3 m/s 697 mmHg 74%
    07:00 +26°C° 0 mm 4 m/s 697 mmHg 73%
    08:00 +26°C° 0 mm 4 m/s 698 mmHg 71%
    09:00 +27°C° 0 mm 4 m/s 698 mmHg 64%
    10:00 +29°C° 0 mm 4 m/s 698 mmHg 57%
    11:00 +30°C° 0 mm 4 m/s 699 mmHg 50%
    12:00 +31°C° 0 mm 3 m/s 698 mmHg 48%
    13:00 +33°C° 0 mm 3 m/s 697 mmHg 46%
    14:00 +32°C° 0 mm 2 m/s 696 mmHg 44%
    15:00 +32°C° 0 mm 2 m/s 696 mmHg 46%
    16:00 +32°C° 0 mm 2 m/s 696 mmHg 47%
    17:00 +33°C° 0 mm 3 m/s 695 mmHg 49%
    18:00 +31°C° 0.2 mm 2 m/s 696 mmHg 52%
    19:00 +30°C° 0.2 mm 2 m/s 696 mmHg 55%
    20:00 +30°C° 0.2 mm 1 m/s 697 mmHg 58%
    21:00 +29°C° 0.1 mm 1 m/s 697 mmHg 59%
    22:00 +29°C° 0.1 mm 1 m/s 697 mmHg 60%
    23:00 +29°C° 0.1 mm 1 m/s 697 mmHg 61%

    Demain, 15 Octobre, Mardi

    Heure Température Précipitation Vent Pression Humidité
    00:00 +28°C° 0.1 mm 1 m/s 697 mmHg 62%
    01:00 +28°C° 0.1 mm 2 m/s 697 mmHg 63%
    02:00 +27°C° 0.1 mm 2 m/s 696 mmHg 65%
    03:00 +27°C° 0 mm 1 m/s 696 mmHg 68%
    04:00 +27°C° 0 mm 1 m/s 696 mmHg 71%
    05:00 +26°C° 0 mm 1 m/s 696 mmHg 74%
    06:00 +27°C° 0 mm 1 m/s 697 mmHg 72%
    07:00 +27°C° 0 mm 1 m/s 697 mmHg 70%
    08:00 +28°C° 0 mm 1 m/s 698 mmHg 68%
    09:00 +29°C° 0 mm 1 m/s 698 mmHg 63%
    10:00 +30°C° 0 mm 2 m/s 698 mmHg 58%
    11:00 +31°C° 0 mm 2 m/s 698 mmHg 53%
    12:00 +32°C° 1 mm 2 m/s 697 mmHg 52%
    13:00 +32°C° 1 mm 2 m/s 697 mmHg 51%
    14:00 +32°C° 1 mm 2 m/s 696 mmHg 50%
    15:00 +32°C° 0.8 mm 2 m/s 696 mmHg 50%
    16:00 +32°C° 0.8 mm 1 m/s 695 mmHg 50%
    17:00 +32°C° 0.8 mm 1 m/s 695 mmHg 50%
    18:00 +31°C° 0.9 mm 2 m/s 696 mmHg 56%
    19:00 +29°C° 0.9 mm 2 m/s 696 mmHg 61%
    20:00 +28°C° 0.9 mm 3 m/s 696 mmHg 66%
    21:00 +28°C° 1.6 mm 2 m/s 696 mmHg 69%
    22:00 +27°C° 1.6 mm 2 m/s 697 mmHg 72%
    23:00 +27°C° 1.6 mm 2 m/s 697 mmHg 74%

    Après-demain, 16 Octobre, Mercredi

    Heure Température Précipitation Vent Pression Humidité
    00:00 +26°C° 1.3 mm 2 m/s 697 mmHg 75%
    01:00 +26°C° 1.3 mm 2 m/s 696 mmHg 76%
    02:00 +26°C° 1.3 mm 3 m/s 696 mmHg 77%
    03:00 +25°C° 2.8 mm 4 m/s 696 mmHg 80%
    04:00 +24°C° 2.8 mm 6 m/s 696 mmHg 82%
    05:00 +23°C° 2.8 mm 8 m/s 696 mmHg 84%
    06:00 +23°C° 2 mm 6 m/s 697 mmHg 82%
    07:00 +23°C° 2 mm 5 m/s 697 mmHg 80%
    08:00 +22°C° 2 mm 3 m/s 698 mmHg 78%
    09:00 +24°C° 0.8 mm 3 m/s 697 mmHg 79%
    10:00 +23°C° 0.8 mm 4 m/s 697 mmHg 79%
    11:00 +23°C° 0.8 mm 4 m/s 697 mmHg 79%
    12:00 +25°C° 0.1 mm 3 m/s 697 mmHg 72%
    13:00 +27°C° 0.1 mm 3 m/s 696 mmHg 66%
    14:00 +28°C° 0.1 mm 2 m/s 696 mmHg 60%
    15:00 +29°C° 0 mm 2 m/s 696 mmHg 58%
    16:00 +29°C° 0 mm 1 m/s 696 mmHg 57%
    17:00 +30°C° 0 mm 1 m/s 696 mmHg 56%
    18:00 +29°C° 0.3 mm 1 m/s 696 mmHg 61%
    19:00 +28°C° 0.3 mm 1 m/s 696 mmHg 65%
    20:00 +27°C° 0.3 mm 1 m/s 696 mmHg 70%
    21:00 +26°C° 1.2 mm 1 m/s 696 mmHg 72%
    22:00 +26°C° 1.2 mm 2 m/s 697 mmHg 75%
    23:00 +26°C° 1.2 mm 2 m/s 697 mmHg 77%

    17 Octobre, Jeudi

    Heure Température Précipitation Vent Pression Humidité
    00:00 +26°C° 0.3 mm 2 m/s 697 mmHg 77%
    01:00 +26°C° 0.3 mm 1 m/s 696 mmHg 78%
    02:00 +25°C° 0.3 mm 1 m/s 696 mmHg 78%
    03:00 +25°C° 0.1 mm 1 m/s 696 mmHg 79%
    04:00 +25°C° 0.1 mm 1 m/s 696 mmHg 79%
    05:00 +25°C° 0.1 mm 1 m/s 696 mmHg 79%
    06:00 +25°C° 0.2 mm 2 m/s 697 mmHg 77%
    07:00 +26°C° 0.2 mm 2 m/s 697 mmHg 75%
    08:00 +26°C° 0.2 mm 2 m/s 698 mmHg 73%
    09:00 +27°C° 0.7 mm 3 m/s 698 mmHg 69%
    10:00 +28°C° 0.7 mm 4 m/s 698 mmHg 66%
    11:00 +29°C° 0.7 mm 4 m/s 698 mmHg 62%
    12:00 +30°C° 0.8 mm 4 m/s 698 mmHg 59%
    13:00 +30°C° 0.8 mm 4 m/s 697 mmHg 56%
    14:00 +31°C° 0.8 mm 3 m/s 696 mmHg 53%
    15:00 +31°C° 0 mm 3 m/s 696 mmHg 52%
    16:00 +31°C° 0 mm 2 m/s 696 mmHg 52%
    17:00 +31°C° 0 mm 1 m/s 696 mmHg 51%
    18:00 +30°C° 0.1 mm 2 m/s 696 mmHg 57%
    19:00 +29°C° 0.1 mm 2 m/s 696 mmHg 63%
    20:00 +28°C° 0.1 mm 2 m/s 697 mmHg 68%
    21:00 +27°C° 0.5 mm 2 m/s 697 mmHg 71%
    22:00 +27°C° 0.5 mm 2 m/s 697 mmHg 74%
    23:00 +26°C° 0.5 mm 2 m/s 697 mmHg 77%

    18 Octobre, Vendredi

    Heure Température Précipitation Vent Pression Humidité
    00:00 +26°C° 0.2 mm 3 m/s 697 mmHg 77%
    01:00 +26°C° 0.2 mm 3 m/s 697 mmHg 76%
    02:00 +26°C° 0.2 mm 4 m/s 697 mmHg 76%
    03:00 +26°C° 0.2 mm 4 m/s 697 mmHg 78%
    04:00 +25°C° 0.2 mm 4 m/s 697 mmHg 80%
    05:00 +25°C° 0.2 mm 4 m/s 697 mmHg 81%
    06:00 +25°C° 0.4 mm 3 m/s 697 mmHg 79%
    07:00 +25°C° 0.4 mm 3 m/s 697 mmHg 78%
    08:00 +26°C° 0.4 mm 2 m/s 698 mmHg 76%
    09:00 +27°C° 0.1 mm 3 m/s 698 mmHg 70%
    10:00 +28°C° 0.1 mm 3 m/s 698 mmHg 65%
    11:00 +30°C° 0.1 mm 4 m/s 698 mmHg 59%
    12:00 +30°C° 0 mm 4 m/s 697 mmHg 56%
    13:00 +31°C° 0 mm 3 m/s 696 mmHg 53%
    14:00 +33°C° 0 mm 3 m/s 696 mmHg 49%
    15:00 +33°C° 0 mm 3 m/s 695 mmHg 50%
    16:00 +31°C° 0 mm 3 m/s 695 mmHg 51%
    17:00 +31°C° 0 mm 3 m/s 695 mmHg 52%
    18:00 +30°C° 0 mm 3 m/s 695 mmHg 56%
    19:00 +29°C° 0 mm 3 m/s 696 mmHg 60%
    20:00 +28°C° 0 mm 3 m/s 696 mmHg 63%
    21:00 +28°C° 0 mm 3 m/s 696 mmHg 67%
    22:00 +27°C° 0 mm 3 m/s 696 mmHg 71%
    23:00 +27°C° 0 mm 3 m/s 696 mmHg 75%

    19 Octobre, Samedi

    Heure Température Précipitation Vent Pression Humidité
    00:00 +26°C° 0 mm 3 m/s 696 mmHg 75%
    01:00 +26°C° 0 mm 2 m/s 696 mmHg 75%
    02:00 +26°C° 0 mm 2 m/s 696 mmHg 76%
    03:00 +26°C° 0 mm 2 m/s 696 mmHg 76%
    04:00 +26°C° 0 mm 2 m/s 696 mmHg 76%
    05:00 +26°C° 0 mm 2 m/s 696 mmHg 76%
    06:00 +26°C° 0.3 mm 2 m/s 696 mmHg 74%
    07:00 +26°C° 0.3 mm 2 m/s 697 mmHg 73%
    08:00 +27°C° 0.3 mm 2 m/s 697 mmHg 71%
    09:00 +28°C° 0 mm 2 m/s 698 mmHg 65%
    10:00 +30°C° 0 mm 2 m/s 698 mmHg 59%
    11:00 +31°C° 0 mm 3 m/s 698 mmHg 53%
    12:00 +32°C° 0 mm 2 m/s 697 mmHg 49%
    13:00 +34°C° 0 mm 2 m/s 696 mmHg 46%
    14:00 +34°C° 0 mm 2 m/s 696 mmHg 42%
    15:00 +34°C° 0 mm 2 m/s 696 mmHg 44%
    16:00 +34°C° 0 mm 2 m/s 695 mmHg 46%
    17:00 +32°C° 0 mm 2 m/s 695 mmHg 48%
    18:00 +31°C° 0.6 mm 3 m/s 695 mmHg 55%
    19:00 +29°C° 0.6 mm 4 m/s 696 mmHg 62%
    20:00 +27°C° 0.6 mm 5 m/s 696 mmHg 70%
    21:00 +27°C° 0.4 mm 4 m/s 696 mmHg 70%
    22:00 +27°C° 0.4 mm 2 m/s 697 mmHg 70%
    23:00 +25°C° 0.4 mm 0 m/s 697 mmHg 70%
    Voir plus